GW4474 Weather Reports


Display with metric or nautical units.
time (UTC)temp
F
wind
direction
speed
MPH
gust
MPH
rain 1hr
in
rain 24hr
in
rain mn
in
humidity
%
barometer
mb
20260508011623 51 0.0 0.0 0.00 0.00 0.00 72 1015.1
20260508010620 52 0.0 0.0 0.00 0.00 0.00 71 1015.1
20260508005557 52 0.0 0.0 0.00 0.00 0.00 70 1015.2
20260508004553 52 0.0 0.0 0.00 0.00 0.00 70 1015.0
20260508003610 53 0.0 0.0 0.00 0.00 0.00 70 1015.1
20260508002607 53 0.0 0.0 0.00 0.00 0.00 71 1015.1
20260508001544 53 0.0 0.0 0.00 0.00 0.00 71 1015.2
20260508000541 53 0.0 0.0 0.00 0.00 0.00 71 1015.3
20260507235558 52 0.0 0.0 0.00 0.00 0.00 71 1015.3
20260507234535 52 0.0 0.0 0.00 0.00 0.00 70 1015.2
20260507233531 52 0.0 0.0 0.00 0.00 0.00 69 1015.1
20260507232528 53 0.0 0.0 0.00 0.00 0.00 69 1015.2
20260507231525 53 0.0 0.0 0.00 0.00 0.00 69 1015.1
20260507230521 53 0.0 0.0 0.00 0.00 0.00 68 1015.1
20260507225519 54 0.0 0.0 0.00 0.00 0.00 67 1015.0
20260507224516 54 0.0 0.0 0.00 0.00 0.00 66 1014.9
20260507223612 54 0.0 0.0 0.00 0.00 0.00 66 1014.8
20260507222629 54 0.0 0.0 0.00 0.00 0.00 67 1014.7
20260507221606 54 0.0 0.0 0.00 0.00 0.00 67 1014.7
20260507220603 55 0.0 0.0 0.00 0.00 0.00 67 1014.7
20260507215559 55 0.0 0.0 0.00 0.00 0.00 67 1014.6
20260507214617 55 0.0 0.0 0.00 0.00 0.00 67 1014.6
20260507213553 55 0.0 0.0 0.00 0.00 0.00 67 1014.5
20260507212550 55 0.0 0.0 0.00 0.00 0.00 66 1014.4
20260507211548 55 0.0 0.0 0.00 0.00 0.00 66 1014.3
20260507210544 55 0.0 0.0 0.00 0.00 0.00 66 1014.1
20260507205601 55 0.0 0.0 0.00 0.00 0.00 65 1014.1
20260507204538 55 0.0 0.0 0.00 0.00 0.00 64 1014.0
20260507203614 55 0.0 0.0 0.00 0.00 0.00 64 1013.9
20260507202552 55 0.0 0.0 0.00 0.00 0.00 63 1013.8
20260507201528 56 0.0 0.0 0.00 0.00 0.00 63 1013.8
20260507200545 56 0.0 0.0 0.00 0.00 0.00 63 1013.7
20260507195521 56 0.0 0.0 0.00 0.00 0.00 63 1013.5
20260507194538 57 0.0 0.0 0.00 0.00 0.00 62 1013.5
20260507193535 57 0.0 0.0 0.00 0.00 0.00 62 1013.4
20260507192632 57 0.0 0.0 0.00 0.00 0.00 60 1013.3
20260507191608 58 0.0 0.0 0.00 0.00 0.00 59 1013.2
20260507190606 58 0.0 0.0 0.00 0.00 0.00 58 1013.1
20260507185602 59 0.0 0.0 0.00 0.00 0.00 57 1013.0
20260507184619 59 0.0 0.0 0.00 0.00 0.00 56 1013.0
20260507183556 59 0.0 0.0 0.00 0.00 0.00 53 1012.9
20260507182613 59 0.0 0.0 0.00 0.00 0.00 52 1012.9
20260507181549 59 0.0 0.0 0.00 0.00 0.00 52 1012.8
20260507180546 60 0.0 0.0 0.00 0.00 0.00 51 1012.8
20260507175543 60 0.0 0.0 0.00 0.00 0.00 51 1012.7
20260507174539 60 0.0 0.0 0.00 0.00 0.00 50 1012.8
20260507173536 60 0.0 0.0 0.00 0.00 0.00 51 1012.8
20260507172533 60 0.0 0.0 0.00 0.00 0.00 58 1012.7
20260507171530 60 0.0 0.0 0.00 0.00 0.00 60 1012.8
20260507170527 60 0.0 0.0 0.00 0.00 0.00 61 1012.9
20260507165524 60 0.0 0.0 0.00 0.00 0.00 61 1013.0
20260507164520 60 0.0 0.0 0.00 0.00 0.00 61 1013.0
20260507163517 60 0.0 0.0 0.00 0.00 0.00 59 1013.0
20260507162614 60 0.0 0.0 0.00 0.00 0.00 58 1013.0
20260507161612 61 0.0 0.0 0.00 0.00 0.00 52 1012.8
20260507160608 61 0.0 0.0 0.00 0.00 0.00 50 1012.9
20260507155605 62 0.0 0.0 0.00 0.00 0.00 45 1012.9
20260507154602 62 0.0 0.0 0.00 0.00 0.00 45 1012.9
20260507153639 63 0.0 0.0 0.00 0.00 0.00 43 1012.9
20260507152556 62 0.0 0.0 0.00 0.00 0.00 43 1012.9
20260507151552 62 0.0 0.0 0.00 0.00 0.00 42 1012.9
20260507150549 63 0.0 0.0 0.00 0.00 0.00 42 1013.0
20260507145546 62 0.0 0.0 0.00 0.00 0.00 43 1013.0
20260507144543 63 0.0 0.0 0.00 0.00 0.00 40 1013.1
20260507143539 63 0.0 0.0 0.00 0.00 0.00 44 1013.1
20260507142536 62 0.0 0.0 0.00 0.00 0.00 45 1013.2
20260507141533 62 0.0 0.0 0.00 0.00 0.00 48 1013.3
20260507140530 61 0.0 0.0 0.00 0.00 0.00 52 1013.3
20260507135526 61 0.0 0.0 0.00 0.00 0.00 53 1013.3
20260507134523 63 0.0 0.0 0.00 0.00 0.00 48 1013.4
20260507133520 64 0.0 0.0 0.00 0.00 0.00 39 1013.4
20260507132517 65 0.0 0.0 0.00 0.00 0.00 37 1013.3
20260507131614 65 0.0 0.0 0.00 0.00 0.00 36 1013.2
20260507130611 65 0.0 0.0 0.00 0.00 0.00 37 1013.3
20260507125607 64 0.0 0.0 0.00 0.00 0.00 38 1013.3
20260507124604 62 0.0 0.0 0.00 0.00 0.00 40 1013.4
20260507123601 62 0.0 0.0 0.00 0.00 0.00 41 1013.5
20260507122558 63 0.0 0.0 0.00 0.00 0.00 40 1013.5
20260507121615 62 0.0 0.0 0.00 0.00 0.00 41 1013.6
20260507120611 63 0.0 0.0 0.00 0.00 0.00 40 1013.7
20260507115548 64 0.0 0.0 0.00 0.00 0.00 39 1013.7
20260507114606 63 0.0 0.0 0.00 0.00 0.00 41 1013.7
20260507113542 62 0.0 0.0 0.00 0.00 0.00 43 1013.8
20260507112539 61 0.0 0.0 0.00 0.00 0.00 48 1013.8
20260507111555 60 0.0 0.0 0.00 0.00 0.00 49 1014.0
20260507110613 59 0.0 0.0 0.00 0.00 0.00 48 1013.9
20260507105529 59 0.0 0.0 0.00 0.00 0.00 48 1013.9
20260507104527 60 0.0 0.0 0.00 0.00 0.00 50 1013.9
20260507103523 60 0.0 0.0 0.00 0.00 0.00 45 1014.0
20260507102520 61 0.0 0.0 0.00 0.00 0.00 42 1014.1
20260507101517 63 0.0 0.0 0.00 0.00 0.00 40 1014.1
20260507100614 63 0.0 0.0 0.00 0.00 0.00 45 1014.2
20260507095610 60 0.0 0.0 0.00 0.00 0.00 44 1014.2
20260507094628 62 0.0 0.0 0.00 0.00 0.00 41 1014.3
20260507093604 64 0.0 0.0 0.00 0.00 0.00 38 1014.3
20260507092621 66 0.0 0.0 0.00 0.00 0.00 41 1014.3
20260507091557 62 0.0 0.0 0.00 0.00 0.00 48 1014.2
20260507090554 59 0.0 0.0 0.00 0.00 0.00 48 1014.3
20260507085552 59 0.0 0.0 0.00 0.00 0.00 49 1014.3
20260507084548 59 0.0 0.0 0.00 0.00 0.00 43 1014.3
20260507083545 61 0.0 0.0 0.00 0.00 0.00 41 1014.4
20260507082622 63 0.0 0.0 0.00 0.00 0.00 38 1014.3
20260507081538 62 0.0 0.0 0.00 0.00 0.00 42 1014.4
20260507080535 61 0.0 0.0 0.00 0.00 0.00 51 1014.3
20260507075532 57 0.0 0.0 0.00 0.00 0.00 54 1014.3
20260507074529 57 0.0 0.0 0.00 0.00 0.00 57 1014.1
20260507073526 56 0.0 0.0 0.00 0.00 0.00 58 1014.2
20260507072522 56 0.0 0.0 0.00 0.00 0.00 60 1014.1
20260507071519 55 0.0 0.0 0.00 0.00 0.00 62 1014.0
20260507070536 54 0.0 0.0 0.00 0.00 0.00 64 1014.0
20260507065613 53 0.0 0.0 0.00 0.00 0.00 68 1014.0
20260507064610 52 0.0 0.0 0.00 0.00 0.00 70 1014.0
20260507063607 52 0.0 0.0 0.00 0.00 0.00 71 1014.0
20260507062603 51 0.0 0.0 0.00 0.00 0.00 71 1014.0
20260507061620 51 0.0 0.0 0.00 0.00 0.00 71 1014.0
20260507060557 51 0.0 0.0 0.00 0.00 0.00 71 1014.0
20260507055553 51 0.0 0.0 0.00 0.00 0.00 71 1013.9
20260507054551 51 0.0 0.0 0.00 0.00 0.00 71 1013.9
20260507053607 51 0.0 0.0 0.00 0.00 0.00 71 1013.9
20260507052544 51 0.0 0.0 0.00 0.00 0.00 70 1013.9
20260507051541 51 0.0 0.0 0.00 0.00 0.00 70 1014.0
20260507050618 51 0.0 0.0 0.00 0.00 0.00 70 1013.9
20260507045534 51 0.0 0.0 0.00 0.00 0.00 69 1013.9
20260507044612 51 0.0 0.0 0.00 0.00 0.00 69 1013.8
20260507043528 51 0.0 0.0 0.00 0.00 0.00 69 1013.8
20260507042525 51 0.0 0.0 0.00 0.00 0.00 68 1013.8
20260507041521 51 0.0 0.0 0.00 0.00 0.00 68 1013.8
20260507040518 51 0.0 0.0 0.00 0.00 0.00 68 1013.8
20260507035515 51 0.0 0.0 0.00 0.00 0.00 69 1013.9
20260507034612 52 0.0 0.0 0.00 0.00 0.00 68 1013.8
20260507033609 52 0.0 0.0 0.00 0.00 0.00 68 1013.9
20260507032606 52 0.0 0.0 0.00 0.00 0.00 70 1014.0
20260507031602 52 0.0 0.0 0.00 0.00 0.00 69 1014.0
20260507030559 52 0.0 0.0 0.00 0.00 0.00 68 1013.9
20260507025556 52 0.0 0.0 0.00 0.00 0.00 68 1013.9
20260507024613 52 0.0 0.0 0.00 0.00 0.00 68 1014.0
20260507023550 52 0.0 0.0 0.00 0.00 0.00 69 1014.0
20260507022547 52 0.0 0.0 0.00 0.00 0.00 69 1014.1
20260507021544 52 0.0 0.0 0.00 0.00 0.00 69 1014.1
20260507020601 52 0.0 0.0 0.00 0.00 0.00 69 1014.1
20260507015537 52 0.0 0.0 0.00 0.00 0.00 69 1014.1
20260507014555 52 0.0 0.0 0.00 0.00 0.00 69 1014.3
20260507013531 52 0.0 0.0 0.00 0.00 0.00 69 1014.2
20260507012528 52 0.0 0.0 0.00 0.00 0.00 69 1014.3